{"data":{"norad_id":64338,"epoch":"2026-05-24T22:32:38.900832Z","epoch_age_seconds":74083,"freshness":"FRESH","line1":"1 64338U 25124X   26144.93933913  .00023185  00000+0  84892-3 0  9997","line2":"2 64338  42.9999  47.4693 0001528 251.3860 108.6826 15.27599016 53488","mean_motion":15.27599016,"eccentricity":0.0001528,"inclination_deg":42.9999,"raan_deg":47.4693,"arg_perigee_deg":251.386,"mean_anomaly_deg":108.6826,"bstar":0.00084892,"rev_number":5348,"period_min":94.265575253552,"perigee_km":481.94377535035,"apogee_km":484.04053642038,"semimajor_km":6861.1291558854,"source":"CELESTRAK","updated_at":"2026-05-25T13:38:20.399165Z"}}